Terminal Aerodrome Forecast
Issued by NWS

Home | Current Version | Previous Version | Graphics & Text | Print | Product List | Glossary On
Versions: 1 2 3 4 5 6 7 8 9 10 11 12 13 14 15
000
FTUS43 KBIS 131500 AAA
TAFDIK
TAF AMD
KDIK 131505Z 1315/1412 35018G25KT P6SM BKN025
     FM131700 33020G30KT P6SM BKN035
     FM140200 33012KT P6SM SCT035
     FM140800 32008KT P6SM BKN020
      AMD NOT SKED=

USA.gov is the U.S. government's official web portal to all federal, state and local government web resources and services.